Voltar ao catálogo

QIANFAN-95

AtivoComunicaçõesPO
NORAD 66037·PAYLOAD·🇨🇳 China

Lançado Oct 17, 2025 de Taiyuan Satellite Launch Center

Loading…

Próximas Passagens (próximas 24 horas)

TLE

AtualizadoSource: Space-Track

Época: Sep 14, 2026, 09:22 UTC

1 66037U 25233E   26257.39068521  .00000064  00000-0  80525-4 0  9997
2 66037  89.0051  33.6435 0001713  92.4611 267.6737 13.51021678 45524

Acompanhe QIANFAN-95 em tempo real com AllMySat

Download on the App Store